W6TKD-13 Weather Reports


time (UTC)temp
C
wind
direction
speed
KPH
gust
KPH
rain 1hr
cm
rain 24hr
cm
rain mn
cm
humidity
%
barometer
mb
20260506102918 12 225 0.0 0.0 0.00 0.00 0.00 73 1018.9
20260506101811 12 225 0.0 1.6 0.00 0.00 0.00 73 1018.8
20260506100704 12 270 0.0 0.0 0.00 0.00 0.00 74 1018.9
20260506095557 12 225 0.0 1.6 0.00 0.00 0.00 74 1018.8
20260506094450 12 315 0.0 0.0 0.00 0.00 0.00 74 1018.7
20260506093343 12 270 0.0 0.0 0.00 0.00 0.00 74 1018.7
20260506092236 12 315 0.0 0.0 0.00 0.00 0.00 74 1018.6
20260506091129 12 315 0.0 0.0 0.00 0.00 0.00 74 1018.7
20260506090022 12 315 0.0 0.0 0.00 0.00 0.00 74 1018.8
20260506084915 12 315 0.0 0.0 0.00 0.00 0.00 74 1018.8
20260506083808 12 315 0.0 0.0 0.00 0.00 0.00 74 1018.7
20260506082701 12 270 0.0 0.0 0.00 0.00 0.00 74 1018.7
20260506081554 12 315 0.0 0.0 0.00 0.00 0.00 74 1018.7
20260506080447 12 315 0.0 0.0 0.00 0.00 0.00 74 1018.8
20260506073126 12 225 0.0 0.0 0.00 0.00 0.00 74 1018.6
20260506072021 12 225 0.0 1.6 0.00 0.00 0.00 74 1018.5
20260506070912 12 315 0.0 0.0 0.00 0.00 0.00 74 1018.4
20260506062444 12 225 0.0 0.0 0.00 0.00 0.00 74 1018.2
20260506061337 12 225 0.0 0.0 0.00 0.00 0.00 74 1018.0
20260506060230 12 270 0.0 0.0 0.00 0.00 0.00 74 1017.9
20260506050655 12 270 0.0 0.0 0.00 0.00 0.00 74 1017.4
20260506044442 12 315 0.0 0.0 0.00 0.00 0.00 74 1017.3
20260506043334 12 270 0.0 0.0 0.00 0.00 0.00 74 1017.2
20260506034907 12 225 0.0 0.0 0.00 0.00 0.00 74 1016.7
20260506033800 12 225 0.0 0.0 0.00 0.00 0.00 74 1016.7
20260506032652 13 225 0.0 1.6 0.00 0.00 0.00 74 1016.6
20260506031545 13 191 0.0 0.0 0.00 0.00 0.00 74 1016.5
20260506030438 13 315 0.0 0.0 0.00 0.00 0.00 74 1016.4
20260506025331 13 315 0.0 0.0 0.00 0.00 0.00 74 1016.0
20260506024225 13 315 0.0 0.0 0.00 0.00 0.00 74 1016.1
20260506023117 13 315 0.0 0.0 0.00 0.00 0.00 74 1015.9
20260506022010 13 315 0.0 0.0 0.00 0.00 0.00 74 1015.8
20260506020904 13 315 0.0 0.0 0.00 0.00 0.00 74 1015.8
20260506015758 14 273 0.0 0.0 0.00 0.00 0.00 74 1015.6
20260506014649 14 315 0.0 0.0 0.00 0.00 0.00 74 1015.8
20260506013542 14 315 0.0 1.6 0.00 0.00 0.00 74 1015.9
20260506012435 14 315 0.0 0.0 0.00 0.00 0.00 75 1016.1
20260506011328 14 315 0.0 0.0 0.00 0.00 0.00 75 1016.0
20260506010221 14 315 0.0 0.0 0.00 0.00 0.00 75 1015.8
20260506005115 14 315 0.0 0.0 0.00 0.00 0.00 75 1015.7
20260506004008 14 315 0.0 0.0 0.00 0.00 0.00 75 1015.7
20260506002900 14 315 0.0 0.0 0.00 0.00 0.00 75 1015.6
20260506001753 14 315 0.0 0.0 0.00 0.00 0.00 75 1015.5
20260506000646 14 315 0.0 0.0 0.00 0.00 0.00 75 1015.5
20260505235539 14 315 0.0 0.0 0.00 0.00 0.00 75 1015.5
20260505234432 13 315 0.0 0.0 0.00 0.00 0.00 75 1015.4
20260505233325 13 315 0.0 0.0 0.00 0.00 0.00 75 1015.4
20260505231111 13 315 0.0 0.0 0.00 0.00 0.00 75 1015.4
20260505224857 14 270 0.0 0.0 0.00 0.00 0.00 75 1015.4
20260505223750 14 315 0.0 0.0 0.00 0.00 0.00 75 1015.4
20260505222643 14 270 0.0 1.6 0.00 0.00 0.00 75 1015.5
20260505221536 14 270 0.0 0.0 0.00 0.00 0.00 75 1015.6
20260505220429 14 315 0.0 0.0 0.00 0.00 0.00 75 1015.6
20260505214215 14 270 0.0 0.0 0.00 0.00 0.00 75 1015.7
20260505213109 14 270 0.0 1.6 0.00 0.00 0.00 75 1015.6
20260505212001 14 0 0.0 1.6 0.00 0.00 0.00 75 1015.7
20260505210854 14 315 0.0 0.0 0.00 0.00 0.00 75 1015.7
20260505205750 14 0 0.0 1.6 0.00 0.00 0.00 75 1015.6
20260505204640 14 315 0.0 0.0 0.00 0.00 0.00 75 1015.6
20260505203533 14 270 0.0 0.0 0.00 0.00 0.00 75 1015.6
20260505202426 14 315 0.0 0.0 0.00 0.00 0.00 75 1015.4
20260505201319 14 292 0.0 0.0 0.00 0.00 0.00 75 1015.4
20260505200212 14 355 0.0 0.0 0.00 0.00 0.00 75 1015.4
20260505195105 14 315 0.0 0.0 0.00 0.00 0.00 75 1015.5
20260505193958 14 270 0.0 0.0 0.00 0.00 0.00 75 1015.5
20260505192851 14 315 0.0 0.0 0.00 0.00 0.00 75 1015.5
20260505191744 15 315 0.0 0.0 0.00 0.00 0.00 75 1015.5
20260505190637 15 270 0.0 0.0 0.00 0.00 0.00 75 1015.4
20260505185530 15 315 0.0 0.0 0.00 0.00 0.00 75 1015.3
20260505183316 15 335 0.0 0.0 0.00 0.00 0.00 75 1015.3
20260505182209 15 135 0.0 0.0 0.00 0.00 0.00 75 1015.2
20260505181102 15 315 0.0 0.0 0.00 0.00 0.00 76 1015.2
20260505175955 14 328 0.0 1.6 0.00 0.00 0.00 76 1015.1
20260505174848 14 315 0.0 1.6 0.00 0.00 0.00 76 1015.0
20260505173741 14 315 0.0 1.6 0.00 0.00 0.00 75 1015.0
20260505172634 14 315 0.0 1.6 0.00 0.00 0.00 75 1014.9
20260505171527 14 228 0.0 1.6 0.00 0.00 0.00 75 1014.8
20260505170420 15 270 0.0 0.0 0.00 0.00 0.00 75 1014.9
20260505165313 15 343 0.0 0.0 0.00 0.00 0.00 75 1014.9
20260505164206 15 315 0.0 0.0 0.00 0.00 0.00 75 1014.9
20260505163059 15 0 1.6 1.6 0.00 0.00 0.00 75 1014.8
20260505161952 15 315 0.0 0.0 0.00 0.00 0.00 76 1014.7
20260505160846 15 270 0.0 0.0 0.00 0.00 0.00 78 1014.7
20260505152417 11 315 0.0 0.0 0.00 0.00 0.00 78 1014.8
20260505151310 11 315 0.0 0.0 0.00 0.00 0.00 78 1014.6
20260505140628 10 315 0.0 0.0 0.00 0.00 0.00 77 1014.3
20260505123732 9 315 0.0 0.0 0.00 0.00 0.00 77 1014.2
20260505122625 9 315 0.0 0.0 0.00 0.00 0.00 77 1014.0
20260505121518 9 315 0.0 0.0 0.00 0.00 0.00 77 1014.0
20260505120411 9 315 0.0 0.0 0.00 0.00 0.00 77 1013.9
20260505115305 9 270 0.0 0.0 0.00 0.00 0.00 77 1013.9
20260505114157 9 270 0.0 0.0 0.00 0.00 0.00 77 1014.0
20260505113050 9 270 0.0 0.0 0.00 0.00 0.00 77 1014.0
20260505111943 9 270 0.0 0.0 0.00 0.00 0.00 77 1014.2
20260505110836 9 270 0.0 0.0 0.00 0.00 0.00 77 1014.2